Terug naar catalogus

SHIYAN 2

SY-2

ActiefWetenschapSSO
NORAD 28479·PAYLOAD·🇨🇳 China

Gelanceerd Nov 18, 2004 vanaf Xichang Satellite Launch Center

Loading…

Volgende Passages (komende 24 uur)

TLE

VersSource: Space-Track

Epoch: Sep 14, 2026, 11:39 UTC

1 28479U 04046A   26257.48560587  .00000534  00000-0  10476-3 0  9992
2 28479  98.0600 265.9554 0009129 346.1445  13.9508 14.66633934162896

Volg SHIYAN 2 in realtime met AllMySat

Download on the App Store